Torna al catalogo

CZ-6A DEB

AttivoPO
NORAD 60713·DEBRIS·🇨🇳 China

Lanciato Aug 6, 2024 da Taiyuan Satellite Launch Center

Loading…

Prossimi Passaggi (prossime 24 ore)

TLE

AggiornatoSource: Space-Track

Epoca: Sep 14, 2026, 17:32 UTC

1 60713U 24140DS  26257.73061369  .00000111  00000-0  46009-4 0  9991
2 60713  89.0074 265.8043 0046142 235.9802 123.7002 14.19038700108299

Traccia CZ-6A DEB in tempo reale con AllMySat

Download on the App Store